SCP
0 0 0 0 0 0 0 0 0 0 0 0 0 0 0 0 0 0 0 0 0 0 0 0 0 0 0 0 0 0 0 0 0 0 0 0 0 0 0 0 0 0 0 0
0 0 0 0 0 0 0 0 0 0 0 0 0 0 0 0 0 0 0 0 0 0 0 0 0 0 0 0 0 0 0 0 0 0 0 0 0 0 0 0 0 0 0 0
0 0 0 0 0 0 0 0 0 0 0 0 0 0 0 0 0 0 0 0 0 0 0 0 0 0 0 0 0 0 0 0 0 0 0 0 0 0 0 0 0 0 0 0
0 0 0 0 0 0 0 0 0 0 0 0 0 0 0 0 0 0 0 0 0 0 0 0 0 0 0 0 0 0 0 0 0 0 0 0 0 0 0 0 0 0 0 0
0 0 0 0 0 0 0 0 0 0 0 0 0 0 0 0 0 0 0 0 0 0 0 0 0 0 0 0 0 0 0 0 0 0 0 0 0 0 0 0 0 0 0 0
0 0 0 0 0 0 0 0 0 0 0 0 0 0 0 0 0 0 0 0 0 0 0 0 0 0 0 0 0 0 0 0 0 0 0 0 0 0 0 0 0 0 0 0
0 0 0 0 0 0 0 0 0 0 0 0 0 0 0 0 0 0 0 0 0 0 0 0 0 0 0 0 0 0 0 0 0 0 0 0 0 0 0 0 0 0 0 0
0 0 0 0 0 0 0 0 0 0 0 0 0 0 0 0 0 0 0 0 0 0 0 0 0 0 0 0 0 0 0 0 0 0 0 0 0 0 0 0 0 0 0 0
0 0 0 0 0 0 0 0 0 0 0 0 0 0 0 0 0 0 0 0 0 0 0 0 0 0 0 0 0 0 0 0 0 0 0 0 0 0 0 0 0 0 0 0
0 0 0 0 0 0 0 0 0 0 0 0 0 0 0 0 0 0 0 0 0 0 0 0 0 0 0 0 0 0 0 0 0 0 0 0 0 0 0 0 0 0 0 0
0 0 0 0 0 0 0 0 0 0 0 0 0 0 0 0 0 0 0 0 0 0 0 0 0 0 0 0 0 0 0 0 0 0 0 0 0 0 0 0 0 0 0 0
0 0 0 0 0 0 0 0 0 0 0 0 0 0 0 0 0 0 0 0 0 0 0 0 0 0 0 0 0 0 0 0 0 0 0 0 0 0 0 0 0 0 0 0
0 0 0 0 0 0 0 0 0 0 0 0 0 0 0 0 0 0 0 0 0 0 0 0 0 0 0 0 0 0 0 0 0 0 0 0 0 0 0 0 0 0 0 0
0 0 0 0 0 0 0 0 0 0 0 0 0 0 0 0 0 0 0 0 0 0 0 0 0 0 0 0 0 0 0 0 0 0 0 0 0 0 0 0 0 0 0 0
0 0 0 0 0 0 0 0 0 0 0 0 0 0 0 0 0 0 0 0 0 0 0 0 0 0 0 0 0 0 0 0 0 0 0 0 0 0 0 0 0 0 0 0
0 0 0 0 0 0 0 0 0 0 0 0 0 0 0 0 0 0 0 0 0 0 0 0 0 0 0 0 0 0 0 0 0 0 0 0 0 0 0 0 0 0 0 0
0 0 0 0 0 0 0 0 0 0 0 0 0 0 0 0 0 0 0 0 0 0 0 0 0 0 0 0 0 0 0 0 0 0 0 0 0 0 0 0 0 0 0 0
0 0 0 0 0 0 0 0 0 0 0 0 0 0 0 0 0 0 0 0 0 0 0 0 0 0 0 0 0 0 0 0 0 0 0 0 0 0 0 0 0 0 0 0
0 0 0 0 0 0 0 0 0 0 0 0 0 0 0 0 0 0 0 0 0 0 0 0 0 0 0 0 0 0 0 0 0 0 0 0 0 0 0 0 0 0 0 0
0 0 0 0 0 0 0 0 0 0 0 0 0 0 0 0 0 0 0 0 0 0 0 0 0 0 0 0 0 0 0 0 0 0 0 0 0 0 0 0 0 0 0 0
0 0 0 0 0 0 0 0 0 0 0 0 0 0 0 0 0 0 0 0 0 0 0 0 0 0 0 0 0 0 0 0 0 0 0 0 0 0 0 0 0 0 0 0
0 0 0 0 0 0 0 0 0 0 0 0 0 0 0 0 0 0 0 0 0 0 0 0 0 0 0 0 0 0 0 0 0 0 0 0 0 0 0 0 0 0 0 0
0 0 0 0 0 0 0 0 0 0 0 0 0 0 0 0 0 0 0 0 0 0 0 0 0 0 0 0 0 0 0 0 0 0 0 0 0 0 0 0 0 0 0 0
0 0 0 0 0 0 0 0 0 0 0 0 0 0 0 0 0 0 0 0 0 0 0 0 0 0 0 0 0 0 0 0 0 0 0 0 0 0 0 0 0 0 0 0
0 0 0 0 0 0 0 -0 0 0 0 0 0 0 0 0 0 0 0 0 0 0 0 0 0 0 0 0 0 0 0 0 0 0 0 0 0 0 0 0 0 0 0 0
-0 -0 0 -0 0 0 0 0 0 0 0 0 0 0 0 0 0 0 0 0 0 0 0 0 0 0 0 0 0 0 0 0 0 0 0 0 0 0 0 0 0 0 0 0
0 0 0 0 0 0 0 0 0 0 0 0 0 0 0 0 0 0 0 0 0 0 0 0 0 0 0 0 0 0 0 0 0 0 0 0 0 0 0 0 0 0 0 0
Wind_Speed_500mb
21 25 19 24 26 29 40 45 42 48 54 35 33 31 35 41 33 37 45 48 49 47 47 45 43 40 34 29 22 15 13 15 13 10 17 17 12 11 11 12 15 18 21 26
6 16 21 36 43 41 46 47 49 48 67 32 50 51 53 60 58 50 55 60 58 53 53 53 49 44 37 30 23 17 17 9 10 12 15 8 7 9 12 14 16 20 25 31
20 15 10 28 25 49 52 51 47 53 70 31 38 41 57 77 62 53 67 69 67 67 64 58 52 43 37 31 24 16 12 10 9 10 9 4 6 9 14 18 20 24 27 30
10 5 26 23 22 23 24 33 39 53 57 53 56 65 80 75 52 59 72 66 70 69 60 58 52 44 38 30 20 16 13 10 8 6 1 4 8 13 16 19 23 25 28 31
13 21 36 58 33 22 25 42 38 39 41 50 54 60 85 66 76 69 61 62 64 63 60 54 49 41 32 25 22 14 11 12 8 5 4 6 9 13 16 18 22 25 28 33
18 24 40 52 15 25 31 48 37 56 52 51 58 28 37 38 32 32 41 60 65 63 62 52 45 39 32 26 19 13 15 11 6 5 5 9 13 16 19 22 24 26 27 32
32 27 31 41 31 18 25 45 11 41 50 50 31 32 33 23 16 34 52 59 56 51 50 45 39 34 30 25 17 18 15 9 6 6 9 11 15 18 22 25 27 29 30 32
16 22 50 14 5 44 45 76 58 49 44 31 34 37 30 20 23 35 45 46 47 48 47 43 38 33 27 23 24 19 13 9 5 6 10 13 15 17 20 23 24 27 29 32
23 17 39 41 39 46 53 63 60 42 43 41 32 29 26 26 29 31 37 43 46 47 46 43 37 31 28 26 24 18 12 6 3 5 8 12 15 19 20 22 25 27 29 35
31 39 54 82 72 69 69 63 60 60 51 40 37 31 29 34 37 41 42 43 47 44 41 40 35 32 32 27 21 16 11 6 4 7 10 14 17 20 23 25 27 30 32 34
24 45 37 76 68 68 61 64 60 53 46 41 38 38 39 40 42 45 48 48 46 43 39 35 38 35 30 26 21 15 9 6 4 6 10 14 16 19 22 25 27 30 32 33
25 33 29 50 39 39 41 51 50 47 43 37 39 45 49 47 48 47 47 48 46 43 42 41 36 33 28 22 18 13 9 4 3 7 10 14 17 19 19 21 24 27 28 32
60 62 50 52 49 43 35 37 37 38 38 38 43 44 44 49 50 51 49 47 45 43 40 37 33 28 24 19 14 9 4 1 4 8 11 13 16 18 19 21 23 27 31 35
64 56 41 58 31 33 30 31 29 29 31 35 40 42 46 49 50 48 49 46 42 39 36 32 28 23 18 14 9 6 3 4 7 11 14 18 20 22 23 24 25 27 30 34
67 57 53 39 31 30 28 25 28 31 34 36 39 45 49 49 52 51 46 43 40 37 33 28 22 17 13 11 9 7 6 7 10 14 17 20 22 25 27 28 30 31 31 32
46 48 44 41 35 33 32 34 35 38 40 43 45 44 45 46 45 45 43 40 37 34 29 22 17 14 12 10 9 9 9 11 14 17 19 21 23 25 28 29 30 32 35 38
38 25 37 42 42 42 43 41 39 42 44 47 50 48 47 47 46 44 43 40 35 29 23 19 16 13 12 12 11 12 13 14 17 19 22 24 26 27 28 28 30 32 34 37
39 29 24 31 41 45 47 45 43 43 46 47 45 45 45 44 43 44 40 35 29 25 20 17 15 13 13 14 16 17 17 18 20 23 25 27 28 29 29 31 32 34 35 35
32 24 18 26 29 40 45 46 42 41 41 42 44 46 44 42 39 38 36 31 26 21 18 16 15 15 17 20 20 21 21 22 24 27 29 31 31 32 33 34 35 36 37 37
29 25 21 27 31 41 46 44 41 43 44 47 47 46 46 43 41 37 31 25 20 18 17 17 19 20 22 22 23 24 25 27 30 32 34 34 35 35 36 36 37 38 39 40
27 25 27 33 41 45 44 44 46 47 46 45 45 44 42 40 37 33 29 24 21 20 21 21 22 23 24 25 26 28 30 32 35 36 37 37 37 38 39 40 40 41 41 42
28 29 33 41 46 48 46 43 43 44 47 48 47 45 42 39 36 32 28 25 23 22 22 23 23 25 28 30 31 33 34 37 38 39 40 40 40 40 41 42 43 43 44 44
34 35 40 43 43 43 46 47 48 47 46 46 45 43 40 37 33 32 30 27 26 24 26 27 28 29 32 34 35 37 39 40 41 41 41 42 43 43 45 45 46 45 46 46
37 38 41 43 45 45 47 47 47 46 45 44 42 41 41 38 36 34 31 29 29 30 29 30 32 34 37 38 39 40 41 41 42 43 43 44 46 47 48 49 48 47 47 47
38 40 43 45 45 44 43 44 46 49 51 50 47 45 43 41 38 34 33 35 36 36 34 35 37 39 41 41 43 43 43 44 44 45 46 47 48 50 50 50 49 49 49 49
44 44 42 40 40 44 47 51 53 52 51 49 47 45 43 41 39 39 40 41 41 41 40 39 40 42 44 45 46 46 46 46 46 46 46 48 50 51 51 51 51 50 49 48
46 46 47 50 54 53 54 54 55 54 51 48 44 44 43 44 45 45 46 46 45 45 44 44 45 46 46 48 48 49 49 48 47 47 47 49 51 52 52 51 51 50 49 49
Wind_Direction_500mb
251 278 273 265 253 244 240 249 249 268 269 268 273 281 288 293 234 220 217 220 221 216 215 218 219 221 223 226 234 240 274 287 296 310 318 314 330 338 353 4 6 10 12 9
242 269 276 270 262 260 260 263 265 269 265 270 270 276 277 274 267 233 223 225 221 217 217 216 218 219 223 230 235 242 257 279 319 324 304 313 326 359 5 11 13 11 11 8
262 262 291 268 238 244 252 252 252 256 263 276 279 281 274 271 273 241 232 228 222 218 217 216 218 219 222 226 225 222 245 252 253 258 264 298 4 14 12 10 18 12 11 6
247 155 250 267 254 270 284 272 251 257 269 272 273 276 274 275 280 268 236 224 225 214 212 213 213 213 216 216 220 228 235 244 226 221 227 45 25 17 14 8 11 7 2 0
236 231 266 267 248 246 261 274 261 269 266 266 273 278 276 277 271 266 247 226 207 208 210 209 207 208 208 207 218 209 206 222 200 163 96 52 31 16 7 4 6 1 358 355
233 247 256 266 276 237 257 264 251 250 259 263 267 263 270 296 279 240 207 196 196 202 208 204 201 202 207 209 209 209 212 195 163 130 75 31 16 9 2 357 358 356 354 356
234 245 257 264 262 192 227 258 272 248 255 264 260 275 283 272 220 200 195 197 203 204 199 196 199 203 204 198 187 200 187 165 118 63 34 20 10 1 356 355 356 356 354 356
229 243 261 183 248 218 243 262 270 272 271 262 273 276 273 246 209 199 198 196 195 190 186 187 188 186 183 180 179 179 168 148 110 52 25 11 0 357 354 355 356 356 354 351
208 229 255 269 258 251 246 257 267 262 261 271 269 256 241 220 204 196 195 188 184 184 183 181 179 176 169 178 172 166 159 142 98 42 20 10 2 358 357 358 354 352 352 345
251 259 257 265 262 267 263 256 259 260 263 261 257 247 215 209 199 194 190 183 178 177 175 173 167 169 173 169 164 163 165 149 82 37 20 7 1 356 353 353 352 352 347 344
250 256 275 270 268 270 262 258 254 254 256 256 241 223 212 202 196 190 183 178 178 175 172 168 169 165 164 168 166 164 157 135 82 31 8 359 355 354 353 351 351 351 346 343
245 262 245 276 284 281 264 261 256 252 248 238 226 213 202 196 188 179 178 173 171 169 170 168 163 164 163 162 166 161 149 122 29 6 356 350 350 351 353 350 346 344 340 341
248 265 260 270 278 276 264 257 252 249 246 234 214 206 196 182 172 171 174 174 172 168 166 166 163 162 165 164 158 161 164 352 344 341 338 336 338 340 342 342 341 338 336 336
249 256 262 259 258 264 260 258 250 229 212 203 198 190 184 175 168 170 172 172 169 167 165 165 166 165 163 162 173 191 219 292 321 328 331 334 336 336 336 336 336 336 335 335
249 247 247 260 258 250 245 229 207 196 190 182 183 180 180 174 170 171 170 168 167 167 168 169 168 168 173 188 202 220 257 292 315 324 326 329 331 333 334 335 335 333 332 333
244 239 242 242 239 231 213 196 194 185 181 180 179 179 178 178 171 168 167 168 170 170 171 173 177 187 198 210 225 245 271 298 309 315 319 322 325 327 326 326 327 330 332 332
215 219 223 224 218 210 202 197 194 190 184 184 182 180 177 174 171 169 170 172 173 174 177 186 197 208 219 232 250 267 280 295 305 309 315 317 317 318 319 321 324 326 326 328
222 240 246 238 222 205 197 193 193 192 188 185 182 179 177 177 177 173 172 172 176 183 191 203 214 225 238 252 261 268 280 290 299 305 306 308 310 313 316 318 318 318 320 322
212 218 215 205 205 201 193 189 189 190 187 186 184 181 177 174 172 173 175 180 187 197 209 220 234 249 253 257 262 268 277 288 296 300 302 304 307 310 311 311 312 313 315 317
205 208 214 200 189 188 188 188 187 187 187 186 182 179 176 176 178 181 186 192 202 214 227 240 249 254 259 263 269 273 280 288 294 297 299 300 302 303 305 306 308 310 311 313
195 203 197 188 179 180 186 191 191 189 187 184 187 185 182 182 184 190 197 206 218 229 240 247 256 263 267 269 273 277 282 288 291 293 293 294 295 297 299 302 304 306 307 309
186 179 179 177 180 182 185 190 190 191 190 187 185 187 189 191 196 201 208 220 229 238 250 259 263 267 271 274 276 280 283 286 288 289 289 289 290 292 295 298 300 302 304 307
178 176 177 180 184 188 190 189 191 191 191 191 192 194 197 202 207 214 221 229 241 250 257 263 267 272 274 276 278 279 281 284 286 287 288 289 290 292 294 296 298 300 302 304
186 184 184 186 189 192 195 194 192 193 193 196 199 202 206 211 217 223 232 240 248 254 257 262 269 273 273 275 277 279 283 287 289 290 290 290 290 291 291 293 295 297 299 301
191 192 193 194 196 198 197 199 200 199 200 203 206 210 216 221 227 232 240 249 254 260 262 263 268 272 274 276 278 281 285 287 289 288 288 288 289 289 290 291 293 295 296 298
200 202 203 204 205 204 204 205 207 207 208 210 213 217 223 230 236 241 244 249 255 260 264 266 269 272 275 277 279 279 281 284 285 285 286 289 291 292 293 292 291 292 293 295
206 207 207 207 208 208 210 211 212 213 214 216 221 226 232 237 241 243 246 251 256 261 265 267 269 272 274 277 279 279 281 282 284 285 287 290 292 294 293 291 289 290 292 294
Wind_Speed_850mb
21 25 19 24 26 29 40 45 42 48 54 35 33 31 35 41 33 37 45 48 49 47 47 45 43 40 34 29 22 15 13 15 13 10 17 17 12 11 11 12 15 18 21 26
6 16 21 36 43 41 46 47 49 48 67 32 50 51 53 60 58 50 55 60 58 53 53 53 49 44 37 30 23 17 17 9 10 12 15 8 7 9 12 14 16 20 25 31
20 15 10 28 25 49 52 51 47 53 70 31 38 41 57 77 62 53 67 69 67 67 64 58 52 43 37 31 24 16 12 10 9 10 9 4 6 9 14 18 20 24 27 30
10 5 26 23 22 23 24 33 39 53 57 53 56 65 80 75 52 59 72 66 70 69 60 58 52 44 38 30 20 16 13 10 8 6 1 4 8 13 16 19 23 25 28 31
13 21 36 58 33 22 25 42 38 39 41 50 54 60 85 66 76 69 61 62 64 63 60 54 49 41 32 25 22 14 11 12 8 5 4 6 9 13 16 18 22 25 28 33
18 24 40 52 15 25 31 48 37 56 52 51 58 28 37 38 32 32 41 60 65 63 62 52 45 39 32 26 19 13 15 11 6 5 5 9 13 16 19 22 24 26 27 32
32 27 31 41 31 18 25 45 11 41 50 50 31 32 33 23 16 34 52 59 56 51 50 45 39 34 30 25 17 18 15 9 6 6 9 11 15 18 22 25 27 29 30 32
16 22 50 14 5 44 45 76 58 49 44 31 34 37 30 20 23 35 45 46 47 48 47 43 38 33 27 23 24 19 13 9 5 6 10 13 15 17 20 23 24 27 29 32
23 17 39 41 39 46 53 63 60 42 43 41 32 29 26 26 29 31 37 43 46 47 46 43 37 31 28 26 24 18 12 6 3 5 8 12 15 19 20 22 25 27 29 35
31 39 54 82 72 69 69 63 60 60 51 40 37 31 29 34 37 41 42 43 47 44 41 40 35 32 32 27 21 16 11 6 4 7 10 14 17 20 23 25 27 30 32 34
24 45 37 76 68 68 61 64 60 53 46 41 38 38 39 40 42 45 48 48 46 43 39 35 38 35 30 26 21 15 9 6 4 6 10 14 16 19 22 25 27 30 32 33
25 33 29 50 39 39 41 51 50 47 43 37 39 45 49 47 48 47 47 48 46 43 42 41 36 33 28 22 18 13 9 4 3 7 10 14 17 19 19 21 24 27 28 32
60 62 50 52 49 43 35 37 37 38 38 38 43 44 44 49 50 51 49 47 45 43 40 37 33 28 24 19 14 9 4 1 4 8 11 13 16 18 19 21 23 27 31 35
64 56 41 58 31 33 30 31 29 29 31 35 40 42 46 49 50 48 49 46 42 39 36 32 28 23 18 14 9 6 3 4 7 11 14 18 20 22 23 24 25 27 30 34
67 57 53 39 31 30 28 25 28 31 34 36 39 45 49 49 52 51 46 43 40 37 33 28 22 17 13 11 9 7 6 7 10 14 17 20 22 25 27 28 30 31 31 32
46 48 44 41 35 33 32 34 35 38 40 43 45 44 45 46 45 45 43 40 37 34 29 22 17 14 12 10 9 9 9 11 14 17 19 21 23 25 28 29 30 32 35 38
38 25 37 42 42 42 43 41 39 42 44 47 50 48 47 47 46 44 43 40 35 29 23 19 16 13 12 12 11 12 13 14 17 19 22 24 26 27 28 28 30 32 34 37
39 29 24 31 41 45 47 45 43 43 46 47 45 45 45 44 43 44 40 35 29 25 20 17 15 13 13 14 16 17 17 18 20 23 25 27 28 29 29 31 32 34 35 35
32 24 18 26 29 40 45 46 42 41 41 42 44 46 44 42 39 38 36 31 26 21 18 16 15 15 17 20 20 21 21 22 24 27 29 31 31 32 33 34 35 36 37 37
29 25 21 27 31 41 46 44 41 43 44 47 47 46 46 43 41 37 31 25 20 18 17 17 19 20 22 22 23 24 25 27 30 32 34 34 35 35 36 36 37 38 39 40
27 25 27 33 41 45 44 44 46 47 46 45 45 44 42 40 37 33 29 24 21 20 21 21 22 23 24 25 26 28 30 32 35 36 37 37 37 38 39 40 40 41 41 42
28 29 33 41 46 48 46 43 43 44 47 48 47 45 42 39 36 32 28 25 23 22 22 23 23 25 28 30 31 33 34 37 38 39 40 40 40 40 41 42 43 43 44 44
34 35 40 43 43 43 46 47 48 47 46 46 45 43 40 37 33 32 30 27 26 24 26 27 28 29 32 34 35 37 39 40 41 41 41 42 43 43 45 45 46 45 46 46
37 38 41 43 45 45 47 47 47 46 45 44 42 41 41 38 36 34 31 29 29 30 29 30 32 34 37 38 39 40 41 41 42 43 43 44 46 47 48 49 48 47 47 47
38 40 43 45 45 44 43 44 46 49 51 50 47 45 43 41 38 34 33 35 36 36 34 35 37 39 41 41 43 43 43 44 44 45 46 47 48 50 50 50 49 49 49 49
44 44 42 40 40 44 47 51 53 52 51 49 47 45 43 41 39 39 40 41 41 41 40 39 40 42 44 45 46 46 46 46 46 46 46 48 50 51 51 51 51 50 49 48
46 46 47 50 54 53 54 54 55 54 51 48 44 44 43 44 45 45 46 46 45 45 44 44 45 46 46 48 48 49 49 48 47 47 47 49 51 52 52 51 51 50 49 49
Wind_Direction_850mb
251 278 273 265 253 244 240 249 249 268 269 268 273 281 288 293 234 220 217 220 221 216 215 218 219 221 223 226 234 240 274 287 296 310 318 314 330 338 353 4 6 10 12 9
242 269 276 270 262 260 260 263 265 269 265 270 270 276 277 274 267 233 223 225 221 217 217 216 218 219 223 230 235 242 257 279 319 324 304 313 326 359 5 11 13 11 11 8
262 262 291 268 238 244 252 252 252 256 263 276 279 281 274 271 273 241 232 228 222 218 217 216 218 219 222 226 225 222 245 252 253 258 264 298 4 14 12 10 18 12 11 6
247 155 250 267 254 270 284 272 251 257 269 272 273 276 274 275 280 268 236 224 225 214 212 213 213 213 216 216 220 228 235 244 226 221 227 45 25 17 14 8 11 7 2 0
236 231 266 267 248 246 261 274 261 269 266 266 273 278 276 277 271 266 247 226 207 208 210 209 207 208 208 207 218 209 206 222 200 163 96 52 31 16 7 4 6 1 358 355
233 247 256 266 276 237 257 264 251 250 259 263 267 263 270 296 279 240 207 196 196 202 208 204 201 202 207 209 209 209 212 195 163 130 75 31 16 9 2 357 358 356 354 356
234 245 257 264 262 192 227 258 272 248 255 264 260 275 283 272 220 200 195 197 203 204 199 196 199 203 204 198 187 200 187 165 118 63 34 20 10 1 356 355 356 356 354 356
229 243 261 183 248 218 243 262 270 272 271 262 273 276 273 246 209 199 198 196 195 190 186 187 188 186 183 180 179 179 168 148 110 52 25 11 0 357 354 355 356 356 354 351
208 229 255 269 258 251 246 257 267 262 261 271 269 256 241 220 204 196 195 188 184 184 183 181 179 176 169 178 172 166 159 142 98 42 20 10 2 358 357 358 354 352 352 345
251 259 257 265 262 267 263 256 259 260 263 261 257 247 215 209 199 194 190 183 178 177 175 173 167 169 173 169 164 163 165 149 82 37 20 7 1 356 353 353 352 352 347 344
250 256 275 270 268 270 262 258 254 254 256 256 241 223 212 202 196 190 183 178 178 175 172 168 169 165 164 168 166 164 157 135 82 31 8 359 355 354 353 351 351 351 346 343
245 262 245 276 284 281 264 261 256 252 248 238 226 213 202 196 188 179 178 173 171 169 170 168 163 164 163 162 166 161 149 122 29 6 356 350 350 351 353 350 346 344 340 341
248 265 260 270 278 276 264 257 252 249 246 234 214 206 196 182 172 171 174 174 172 168 166 166 163 162 165 164 158 161 164 352 344 341 338 336 338 340 342 342 341 338 336 336
249 256 262 259 258 264 260 258 250 229 212 203 198 190 184 175 168 170 172 172 169 167 165 165 166 165 163 162 173 191 219 292 321 328 331 334 336 336 336 336 336 336 335 335
249 247 247 260 258 250 245 229 207 196 190 182 183 180 180 174 170 171 170 168 167 167 168 169 168 168 173 188 202 220 257 292 315 324 326 329 331 333 334 335 335 333 332 333
244 239 242 242 239 231 213 196 194 185 181 180 179 179 178 178 171 168 167 168 170 170 171 173 177 187 198 210 225 245 271 298 309 315 319 322 325 327 326 326 327 330 332 332
215 219 223 224 218 210 202 197 194 190 184 184 182 180 177 174 171 169 170 172 173 174 177 186 197 208 219 232 250 267 280 295 305 309 315 317 317 318 319 321 324 326 326 328
222 240 246 238 222 205 197 193 193 192 188 185 182 179 177 177 177 173 172 172 176 183 191 203 214 225 238 252 261 268 280 290 299 305 306 308 310 313 316 318 318 318 320 322
212 218 215 205 205 201 193 189 189 190 187 186 184 181 177 174 172 173 175 180 187 197 209 220 234 249 253 257 262 268 277 288 296 300 302 304 307 310 311 311 312 313 315 317
205 208 214 200 189 188 188 188 187 187 187 186 182 179 176 176 178 181 186 192 202 214 227 240 249 254 259 263 269 273 280 288 294 297 299 300 302 303 305 306 308 310 311 313
195 203 197 188 179 180 186 191 191 189 187 184 187 185 182 182 184 190 197 206 218 229 240 247 256 263 267 269 273 277 282 288 291 293 293 294 295 297 299 302 304 306 307 309
186 179 179 177 180 182 185 190 190 191 190 187 185 187 189 191 196 201 208 220 229 238 250 259 263 267 271 274 276 280 283 286 288 289 289 289 290 292 295 298 300 302 304 307
178 176 177 180 184 188 190 189 191 191 191 191 192 194 197 202 207 214 221 229 241 250 257 263 267 272 274 276 278 279 281 284 286 287 288 289 290 292 294 296 298 300 302 304
186 184 184 186 189 192 195 194 192 193 193 196 199 202 206 211 217 223 232 240 248 254 257 262 269 273 273 275 277 279 283 287 289 290 290 290 290 291 291 293 295 297 299 301
191 192 193 194 196 198 197 199 200 199 200 203 206 210 216 221 227 232 240 249 254 260 262 263 268 272 274 276 278 281 285 287 289 288 288 288 289 289 290 291 293 295 296 298
200 202 203 204 205 204 204 205 207 207 208 210 213 217 223 230 236 241 244 249 255 260 264 266 269 272 275 277 279 279 281 284 285 285 286 289 291 292 293 292 291 292 293 295
206 207 207 207 208 208 210 211 212 213 214 216 221 226 232 237 241 243 246 251 256 261 265 267 269 272 274 277 279 279 281 282 284 285 287 290 292 294 293 291 289 290 292 294